Location: Gerlach
(40.6516°N, 119.3568°W)
Time: 15:53:40
(UTC-07:00)

A-11 Canister half - Pass Details

Date: 21 February 2024
Orbit: 1525 x 1683 km, 47.3° (Epoch: 22 April)

Event Time Altitude Azimuth Distance (km) Brightness Sun altitude
Rises 21:35:02 0° 234° (SW) 4,758 11.8 -44.2°
Reaches altitude 10° 21:38:08 10° 234° (SW) 3,755 11.2 -44.7°
Enters shadow 21:41:16 24° 232° (SW) 2,776 10.4 -45.2°
